Orlando International

Airport
ICAO code: 
KMCO
Summary
ICAO Region: 
NAM
Territory: 
Location: 
Orlando, Florida,
Coordinates: 
Aerial View: 
28° 25' 52.978" N, 81° 18' 30.375" W
Airport WX: 
Lightning
Metar
Observation
KMCO 081253Z 24004KT 1/8SM R35L/0800V1000FT FG VV001 18/17 A3009 RMK AO2 SLP186 T01780172
Station
Orlando, Orlando International Airport
Date/Time
2021-12-08 12:53:00
Wind direction
240°
Wind speed
04 kts
Lowest cloud amount
n/a
Temperature
17.8°C
Dew point
17.2°C
Humidity
96%
Weather condition
fog

Description

International airport 6 nm south east of Orlando, Florida, USA.

Climatology

Humid “subtropical” climate (Köppen climate classification Cfa) - characterized by hot, humid summers and cool winters. From October to March the temperatures are more moderate and rain less frequent. Most summer rainfall occurs during thunderstorms and occasional tropical storms (hurricanes).

Runways

Designator Length Width Surface Rops
17L/35R 2743 46 ASP Yes/Yes
17R/35L 3048 46 CON Yes/Yes
18L/36R 3659 61 PEM Yes/Yes
18R/36L 3659 61 CON Yes/Yes
Airport map: 
Aerial View: 

Accidents and Serious Incidents at or in the vicinity of KMCO

SKYbrary Partners:

Safety knowledge contributed by: